Simultaneous Nadir Overpasses (SNOs) Predictions

Prediction of SNOs between GOES-16 and NOAA-20 Satellite Orbit:

Table of predicted SNOs for the next 14.0 days since TLE Epoch: 5/29/2021
Index Date Time (GOES-16) GOES-16 Lat,Lon NOAA-20 Lat,Lon Distance(km) Time Diff (sec)
1 05/29/2021 06:11:17 -0.01, -75.19 -0.69, -72.07 355.94 80
2 05/30/2021 18:33:14 0.01, -75.21 -0.47, -77.38 247.13 80
3 05/31/2021 18:17:09 -0.00, -75.22 0.54, -72.85 270.25 80
4 06/02/2021 06:38:58 -0.00, -75.23 0.62, -78.13 329.33 80
5 06/03/2021 06:20:13 0.00, -75.24 -0.39, -73.60 188.52 80
6 06/04/2021 18:39:30 0.00, -75.27 -0.82, -78.90 413.23 80
7 06/05/2021 18:23:25 -0.00, -75.29 0.19, -74.37 105.09 80
8 06/07/2021 06:45:13 -0.01, -75.32 0.97, -79.64 493.17 80
9 06/08/2021 06:23:49 -0.01, -75.34 -0.04, -75.11 25.26 80
10 06/10/2021 18:27:02 0.01, -75.40 -0.09, -75.90 57.32 80
11 06/11/2021 18:10:57 0.01, -75.42 0.92, -71.37 461.49 80
